Powrót do katalogu

SL-12 DEB

LostHEO
NORAD 41768·DEBRIS·🇷🇺 Russia

Wystrzelony Dec 25, 2006 z Baikonur Cosmodrome

Loading…

Następne Przeloty (najbliższe 24 godziny)

TLE

NieaktualneSource: Space-Track

Epoka: Aug 18, 2025, 13:35 UTC

1 41768U 06062J   25230.56629842 -.00000018  00000-0  21173-3 0  9991
2 41768  64.7378  40.8097 5449302 293.7212  19.3761  4.48751807142057

Śledź SL-12 DEB w czasie rzeczywistym z AllMySat

Download on the App Store